Location: Innsbruck
(47.2657°N, 11.3914°E)
Time: 01:40:01
(UTC+02:00)

Envisat - Pass Details

Date: 09 February 2023
Orbit: 763 x 765 km, 98.2° (Epoch: 28 March)

Event Time Altitude Azimuth Distance (km) Brightness Sun altitude
Rises 06:17:18 0° 358° (N) 3,245 6.1 -12.7°
Reaches altitude 10° 06:20:54 10° 331° (NNW) 2,312 5.1 -12.1°
Maximum altitude 06:23:06 13° 305° (NW) 2,109 4.7 -11.7°
Enters shadow 06:23:11 13° 304° (NW) 2,110 4.7 -11.7°
